Wind_Speed
24 23 23 23 23 23 23 24 24 23 22 21 21 21 21 20 20 20 21 21 21 20 19 19 19 19 19 20 20 20 20 20 20 20 20 20 20 20 20 20 20 20 20 21
26 26 26 25 25 24 23 24 25 24 23 21 21 22 22 22 23 22 23 23 21 21 21 21 20 20 20 20 21 21 21 21 20 20 21 21 21 22 22 21 21 22 22 23
28 28 28 28 26 25 24 23 24 24 23 23 22 23 23 23 24 24 24 23 22 22 22 22 21 21 21 22 22 21 22 22 22 22 23 23 22 22 22 22 23 23 24 24
30 29 30 28 26 26 24 24 23 24 24 25 24 24 24 24 23 24 24 23 22 22 22 23 24 23 22 23 24 24 23 23 23 24 25 24 24 25 25 25 25 25 25 25
32 31 30 29 27 27 27 27 25 25 26 26 26 25 26 26 25 25 25 24 23 23 24 24 24 24 23 24 25 25 25 25 25 26 26 26 26 27 27 27 27 26 26 26
32 33 31 30 29 28 28 28 26 25 26 26 26 27 26 26 26 27 27 26 25 24 25 25 25 26 25 25 25 26 26 27 27 27 27 27 27 28 28 28 28 28 28 28
31 31 30 29 28 28 29 29 28 27 26 27 27 27 26 26 26 27 27 27 26 26 27 26 26 26 26 26 26 27 27 28 28 27 28 28 28 28 28 28 29 29 29 30
31 30 30 30 29 29 29 28 29 28 27 27 27 28 28 27 28 28 28 28 29 28 28 28 28 28 28 27 27 28 28 29 29 29 29 29 29 29 29 29 30 30 30 31
32 32 31 30 30 30 31 30 29 28 29 28 27 27 28 28 29 28 28 29 30 30 30 30 30 30 29 29 29 29 29 30 30 31 31 30 30 31 30 30 31 31 31 31
32 32 32 32 31 30 30 31 30 29 28 27 27 28 29 29 28 28 29 30 30 30 30 30 31 30 30 30 30 30 30 31 31 31 31 31 31 31 31 31 31 31 31 31
32 32 32 32 31 31 31 30 29 29 30 29 29 29 29 30 30 30 30 29 30 30 30 31 31 31 31 30 30 30 30 31 31 31 31 32 32 32 32 32 33 33 32 31
31 31 31 31 30 29 30 30 29 29 29 29 29 30 29 29 30 31 32 32 32 32 31 30 30 31 31 31 31 31 30 30 30 31 31 31 31 31 32 32 32 32 32 31
30 30 30 30 30 29 29 29 30 30 29 30 30 30 29 29 29 30 30 31 32 32 31 31 31 31 31 31 31 32 32 31 31 31 31 31 31 32 32 32 32 31 31 31
31 31 31 30 29 29 29 29 30 30 29 29 30 29 29 29 30 31 31 31 31 31 31 31 31 31 31 31 31 32 32 31 31 32 31 31 32 32 33 33 32 31 31 31
30 29 29 29 28 29 29 29 29 29 29 29 29 29 28 29 30 31 31 31 31 30 30 30 30 30 30 30 31 31 31 31 31 31 31 31 32 32 32 32 32 31 32 32
29 29 27 27 28 29 29 29 29 29 30 29 29 28 29 29 29 29 29 30 30 29 29 30 30 29 28 29 30 31 32 32 31 31 31 31 31 32 32 32 31 31 31 32
28 28 28 27 27 27 27 28 28 28 28 28 28 28 28 28 28 27 28 29 29 29 29 28 28 29 29 29 30 31 32 31 31 31 31 31 31 31 31 31 30 31 31 31
26 27 28 28 27 27 27 27 27 26 27 27 27 27 28 28 28 27 27 28 28 28 29 29 29 29 30 31 31 31 31 31 31 31 31 30 30 30 30 30 30 30 30 30
25 25 26 26 26 26 26 25 25 25 26 27 28 28 27 27 26 26 27 28 27 28 28 28 28 29 29 30 30 31 30 30 30 30 30 29 29 29 29 29 29 28 28 29
24 25 25 25 26 25 25 25 25 26 26 27 27 26 24 23 24 25 26 27 27 27 26 27 27 28 29 28 29 29 29 30 30 30 29 28 27 28 28 28 28 28 28 28
21 23 23 24 24 24 24 24 25 25 25 25 25 25 25 24 23 24 24 24 24 25 25 26 27 27 27 27 28 28 29 29 29 28 27 27 27 27 27 27 27 26 26 26
20 21 22 22 22 22 22 22 22 23 23 23 23 23 24 23 22 22 22 23 23 23 24 24 25 25 26 26 27 27 28 28 27 26 25 25 25 25 25 25 25 25 26 26
19 19 19 20 20 19 20 20 21 21 22 21 21 21 21 21 21 22 23 22 22 23 24 24 24 24 25 25 25 25 25 24 24 24 25 25 25 24 25 25 25 26 26 27
17 18 18 19 19 19 19 19 18 18 19 19 20 20 20 20 21 21 22 22 22 23 23 23 24 24 24 24 24 24 23 23 23 24 24 24 24 24 24 25 26 26 26 27
16 17 17 18 18 19 18 17 17 17 18 19 19 19 20 20 20 20 20 20 21 22 23 23 23 23 22 22 22 23 22 22 22 22 23 23 23 23 24 25 26 26 26 25
14 14 15 16 17 17 17 16 16 16 17 17 17 17 18 18 18 18 19 19 20 21 22 22 22 22 22 22 22 22 22 21 21 22 22 22 22 23 23 24 24 25 24 24
13 13 14 14 14 15 15 16 16 16 17 17 17 18 18 18 18 18 19 20 21 21 21 21 21 21 21 21 20 20 21 21 21 21 21 22 22 22 22 23 24 24 24 24
Wind_Direction
242 244 246 247 250 254 259 262 265 269 273 273 274 280 283 283 282 284 288 293 295 294 293 293 294 294 295 296 296 296 296 296 297 297 296 295 294 294 293 293 291 291 291 290
241 241 245 248 251 256 261 265 267 267 269 270 273 277 282 282 284 287 289 291 293 293 292 292 293 292 291 293 295 294 294 294 294 295 295 293 292 292 292 292 292 292 291 290
243 241 245 247 250 254 261 266 268 270 272 274 276 278 280 282 285 288 288 289 290 292 290 290 289 288 290 294 294 293 292 291 291 292 293 292 290 289 290 291 291 290 289 290
245 244 246 249 251 255 260 264 267 269 271 273 277 278 279 279 282 284 285 284 286 287 288 289 289 288 290 291 293 292 290 290 291 291 291 290 288 288 289 289 289 289 288 288
244 246 248 249 252 256 262 266 267 271 273 277 278 277 277 280 283 285 289 290 289 289 288 289 289 289 290 291 293 293 293 291 291 291 292 291 289 288 287 287 288 287 287 287
247 248 249 252 254 257 261 264 267 270 273 276 276 276 277 280 284 285 288 289 287 285 287 289 289 289 290 290 290 292 291 290 290 291 291 290 290 289 287 287 286 286 286 287
247 250 252 254 255 258 261 265 267 270 271 273 275 275 277 279 281 284 287 286 285 285 286 288 288 289 289 290 291 291 290 290 290 289 289 290 289 289 288 288 287 286 285 285
248 251 254 257 258 259 263 265 266 269 270 272 274 275 276 280 282 282 283 284 284 285 285 286 287 287 287 288 289 290 290 290 290 288 289 289 289 288 287 288 288 288 286 286
247 251 255 258 259 261 261 263 264 267 271 273 274 276 278 279 280 280 282 282 283 283 285 285 285 286 285 287 288 288 288 289 289 289 288 288 288 288 288 289 288 287 287 285
248 251 255 258 260 263 265 265 266 268 270 273 273 274 276 279 281 281 283 284 285 285 285 285 285 285 285 286 286 287 287 288 289 289 289 288 288 288 288 288 288 286 287 286
250 254 256 258 261 264 265 268 270 270 270 272 272 273 276 277 279 281 281 283 283 284 285 285 286 286 286 287 287 287 288 288 289 289 289 290 290 291 289 288 288 287 286 285
250 254 256 259 261 264 266 269 270 270 272 273 274 274 275 277 278 278 279 281 283 284 285 285 286 287 287 288 289 289 289 289 289 289 289 290 290 290 291 290 289 287 285 284
250 252 255 258 260 263 266 267 268 269 271 271 273 276 276 277 277 277 280 282 282 284 285 286 285 285 287 287 288 289 290 290 290 289 289 289 289 289 290 291 291 290 288 285
250 253 255 256 259 261 263 266 268 269 271 271 273 276 274 275 277 278 281 283 283 284 284 283 283 284 286 286 287 289 290 290 290 289 289 289 289 289 289 289 289 288 287 286
251 252 255 257 259 261 264 267 268 270 271 272 274 274 274 276 278 279 280 281 283 285 284 284 284 285 285 286 287 288 289 290 290 290 290 290 290 290 291 291 290 288 286 286
251 253 257 257 260 262 264 267 269 269 270 272 274 275 276 278 278 278 280 283 284 285 285 286 287 285 285 286 288 289 290 290 290 291 290 290 291 291 292 291 290 290 289 289
254 256 258 259 259 262 264 266 268 269 270 272 274 275 277 278 279 279 281 283 283 284 285 285 286 285 286 287 288 289 290 291 291 291 291 292 292 292 292 291 290 290 290 291
255 257 259 260 261 263 266 269 270 270 271 273 274 274 276 276 279 280 281 283 283 284 284 285 286 287 287 287 287 289 291 292 295 295 294 294 294 293 292 292 292 292 291 291
254 256 257 259 262 263 266 268 269 271 272 273 273 276 276 277 277 277 280 282 282 283 284 285 286 287 288 289 289 289 291 292 294 294 294 293 294 294 294 294 294 294 293 294
258 258 258 262 265 265 266 268 270 271 272 273 274 278 281 278 277 278 280 280 282 284 285 286 287 287 289 291 292 292 293 293 294 294 293 293 293 294 295 295 295 296 296 297
261 261 263 266 266 266 267 268 269 269 270 272 274 279 282 282 279 281 285 283 283 285 287 289 290 291 291 292 294 294 294 294 295 294 294 294 294 295 295 295 295 296 297 298
267 266 266 268 269 269 268 268 269 269 269 271 274 278 280 281 281 285 289 286 285 286 287 289 291 293 293 294 296 297 297 296 295 295 295 295 296 296 296 297 297 299 299 300
270 268 268 270 271 271 270 270 272 272 270 271 274 277 279 281 284 286 289 287 286 286 288 291 293 294 295 296 298 299 300 299 296 295 295 295 296 297 298 298 299 300 300 300
271 271 271 271 272 273 271 271 273 274 274 276 275 279 282 284 287 289 289 288 286 287 289 290 294 296 296 296 298 300 301 299 297 298 297 296 297 298 299 299 299 299 299 301
274 272 271 272 272 272 272 271 273 275 276 278 278 281 282 284 288 288 288 290 291 291 292 294 295 298 298 298 299 299 299 298 297 298 299 299 299 299 300 301 302 302 301 302
278 278 279 278 273 272 272 272 273 275 275 279 280 282 286 290 291 290 292 296 299 298 300 299 299 299 301 301 300 299 298 298 299 301 302 303 303 302 303 305 306 306 304 303
276 280 282 283 279 276 274 273 273 277 279 280 283 286 289 293 294 292 294 298 301 303 304 305 305 304 304 302 301 300 300 303 304 305 305 305 304 303 305 307 308 308 307 306
Height
5863 5865 5866 5867 5868 5869 5869 5869 5869 5869 5869 5869 5869 5869 5868 5868 5867 5867 5867 5866 5865 5863 5861 5860 5858 5857 5856 5855 5853 5851 5850 5848 5847 5844 5843 5842 5840 5839 5837 5835 5834 5832 5831 5829
5857 5859 5860 5861 5862 5862 5863 5863 5863 5863 5863 5864 5863 5863 5863 5862 5862 5862 5862 5861 5859 5858 5856 5855 5853 5852 5850 5849 5847 5846 5844 5843 5841 5839 5838 5836 5835 5833 5832 5830 5828 5826 5825 5823
5850 5853 5853 5854 5856 5856 5857 5857 5857 5857 5859 5858 5858 5858 5858 5857 5856 5856 5856 5855 5853 5852 5851 5849 5847 5846 5845 5844 5841 5840 5838 5837 5835 5834 5832 5830 5829 5827 5825 5823 5822 5820 5817 5816
5843 5846 5846 5850 5850 5850 5851 5851 5851 5851 5852 5852 5852 5852 5851 5851 5850 5850 5849 5848 5847 5846 5845 5843 5841 5839 5838 5837 5835 5834 5832 5830 5829 5827 5825 5823 5821 5820 5818 5816 5814 5812 5810 5808
5836 5837 5839 5842 5843 5843 5844 5844 5845 5845 5845 5845 5845 5844 5844 5844 5844 5843 5842 5842 5841 5840 5838 5837 5835 5833 5831 5830 5829 5827 5825 5823 5821 5820 5818 5816 5814 5812 5810 5808 5806 5804 5802 5800
5829 5830 5832 5835 5836 5836 5838 5837 5839 5838 5838 5838 5838 5838 5838 5837 5836 5836 5835 5835 5834 5832 5830 5829 5828 5826 5825 5824 5822 5820 5818 5816 5814 5812 5810 5808 5806 5804 5802 5800 5798 5796 5794 5792
5821 5822 5824 5827 5828 5830 5831 5832 5832 5832 5832 5831 5831 5831 5831 5830 5829 5829 5827 5827 5826 5825 5823 5822 5820 5819 5818 5816 5814 5812 5810 5808 5806 5804 5802 5800 5798 5795 5793 5791 5789 5787 5785 5783
5813 5815 5819 5819 5821 5822 5823 5824 5824 5824 5824 5824 5824 5824 5823 5822 5822 5821 5820 5819 5818 5817 5816 5814 5812 5811 5810 5808 5807 5805 5802 5800 5798 5795 5793 5791 5789 5787 5784 5782 5780 5778 5775 5773
5807 5809 5810 5811 5813 5814 5815 5815 5816 5816 5816 5816 5816 5816 5816 5815 5814 5813 5812 5811 5810 5809 5807 5806 5804 5803 5801 5799 5798 5796 5794 5791 5788 5786 5784 5781 5779 5777 5775 5773 5771 5768 5766 5764
5798 5800 5801 5803 5804 5805 5806 5807 5808 5808 5809 5809 5808 5808 5808 5807 5806 5804 5803 5802 5801 5800 5798 5797 5795 5794 5792 5791 5789 5787 5785 5782 5779 5777 5774 5772 5770 5768 5765 5763 5761 5758 5756 5754
5789 5792 5793 5795 5796 5796 5798 5798 5799 5800 5801 5801 5800 5800 5799 5798 5797 5796 5795 5793 5792 5790 5789 5787 5786 5784 5783 5781 5779 5777 5775 5772 5770 5768 5765 5763 5760 5758 5755 5753 5750 5748 5746 5744
5782 5784 5785 5786 5788 5789 5790 5790 5791 5792 5792 5792 5791 5791 5790 5790 5789 5788 5786 5785 5784 5782 5780 5778 5777 5775 5773 5772 5770 5768 5766 5763 5761 5758 5756 5753 5751 5748 5745 5743 5740 5737 5736 5734
5773 5775 5777 5778 5779 5781 5781 5782 5782 5783 5783 5783 5782 5781 5781 5780 5779 5778 5777 5776 5774 5773 5771 5769 5767 5766 5764 5762 5760 5758 5757 5754 5752 5749 5747 5744 5742 5739 5737 5734 5730 5728 5726 5724
5765 5767 5768 5770 5771 5772 5773 5773 5774 5774 5774 5774 5773 5771 5770 5771 5770 5769 5768 5766 5764 5763 5761 5759 5758 5756 5754 5753 5751 5749 5747 5745 5742 5740 5737 5735 5732 5729 5727 5724 5722 5719 5716 5714
5756 5758 5760 5762 5763 5763 5764 5765 5765 5765 5765 5765 5764 5762 5762 5762 5761 5760 5759 5757 5755 5754 5751 5749 5748 5747 5745 5744 5742 5740 5737 5735 5733 5730 5728 5725 5722 5719 5716 5713 5711 5709 5706 5704
5748 5750 5751 5753 5754 5755 5756 5756 5756 5756 5756 5756 5756 5755 5754 5753 5752 5751 5750 5748 5746 5745 5743 5741 5739 5738 5737 5735 5733 5731 5728 5726 5723 5720 5718 5715 5712 5709 5706 5704 5701 5698 5696 5694
5740 5741 5743 5744 5746 5747 5747 5747 5747 5747 5747 5747 5747 5746 5746 5745 5743 5742 5741 5740 5738 5736 5735 5733 5731 5729 5728 5726 5724 5722 5719 5716 5713 5711 5708 5705 5702 5699 5696 5694 5691 5688 5685 5683
5733 5734 5735 5736 5737 5738 5738 5738 5739 5738 5739 5738 5738 5738 5737 5736 5735 5734 5732 5731 5729 5727 5726 5724 5722 5721 5719 5717 5714 5712 5709 5707 5704 5701 5698 5695 5693 5690 5687 5684 5681 5678 5676 5673
5726 5727 5728 5728 5729 5729 5730 5730 5730 5730 5730 5730 5729 5728 5727 5725 5725 5724 5723 5722 5720 5719 5717 5716 5714 5712 5710 5707 5705 5702 5700 5697 5695 5692 5689 5686 5683 5680 5678 5675 5672 5669 5666 5664
5719 5720 5721 5721 5721 5722 5722 5722 5722 5723 5723 5722 5721 5719 5718 5717 5717 5716 5715 5713 5712 5710 5709 5707 5706 5703 5701 5698 5696 5693 5691 5688 5685 5682 5680 5677 5674 5672 5669 5666 5663 5660 5658 5655
5712 5713 5713 5714 5714 5714 5714 5714 5714 5714 5714 5713 5713 5712 5711 5710 5709 5708 5706 5705 5704 5702 5701 5699 5697 5695 5693 5690 5688 5685 5682 5679 5676 5674 5671 5668 5665 5663 5660 5657 5655 5652 5649 5646
5706 5706 5706 5707 5707 5707 5707 5707 5706 5706 5706 5705 5705 5704 5704 5703 5702 5700 5699 5697 5696 5695 5693 5692 5689 5687 5684 5682 5679 5676 5673 5671 5668 5665 5663 5660 5657 5654 5652 5650 5647 5644 5641 5638
5700 5700 5699 5700 5700 5700 5700 5700 5699 5699 5698 5698 5698 5697 5696 5695 5694 5693 5692 5690 5689 5687 5686 5684 5682 5679 5677 5674 5671 5668 5665 5663 5660 5658 5655 5653 5650 5647 5644 5642 5639 5636 5633 5630
5694 5693 5693 5694 5694 5694 5693 5693 5693 5692 5692 5691 5691 5690 5689 5688 5687 5686 5685 5683 5682 5679 5678 5676 5674 5672 5669 5667 5664 5661 5658 5656 5653 5650 5648 5645 5642 5640 5637 5634 5632 5629 5626 5623
5689 5688 5688 5688 5687 5687 5687 5687 5686 5686 5686 5685 5685 5684 5683 5682 5681 5680 5679 5677 5675 5673 5670 5668 5666 5664 5662 5660 5657 5654 5651 5649 5646 5643 5640 5638 5635 5633 5630 5627 5624 5621 5618 5615
5684 5683 5682 5682 5681 5681 5681 5681 5681 5680 5680 5680 5679 5678 5677 5676 5675 5674 5673 5671 5669 5667 5664 5662 5660 5657 5655 5652 5650 5647 5645 5642 5639 5636 5634 5631 5629 5626 5623 5620 5617 5614 5611 5608
5679 5678 5678 5676 5676 5675 5675 5675 5675 5675 5675 5674 5674 5673 5672 5670 5669 5668 5666 5665 5663 5661 5659 5656 5654 5651 5648 5645 5643 5641 5638 5636 5633 5631 5628 5625 5622 5619 5616 5613 5610 5607 5604 5601